EW2719 Weather Reports


Display with metric or nautical units.
time (UTC)temp
F
wind
direction
speed
MPH
gust
MPH
rain 1hr
in
rain 24hr
in
rain mn
in
humidity
%
barometer
mb
20260502130105 74 161 7.0 15.0 0.00 0.00 0.00 52 1013.0
20260502123050 75 225 10.0 17.0 0.00 0.00 0.00 42 1013.3
20260502121558 75 236 8.0 16.0 0.00 0.00 0.00 46 1013.5
20260502120105 74 219 10.0 19.0 0.00 0.00 0.00 44 1013.7
20260502114548 73 232 8.0 17.0 0.00 0.00 0.00 44 1013.9
20260502113054 73 246 10.0 16.0 0.00 0.00 0.00 45 1014.2
20260502111544 73 202 10.0 16.0 0.00 0.00 0.00 49 1014.3
20260502110037 72 239 9.0 16.0 0.00 0.00 0.00 54 1014.5
20260502104534 71 196 7.0 14.0 0.00 0.00 0.00 58 1014.6
20260502103055 70 167 8.0 13.0 0.00 0.00 0.00 61 1014.7
20260502101538 69 166 8.0 15.0 0.00 0.00 0.00 61 1014.8
20260502091514 67 163 8.0 11.0 0.00 0.00 0.00 69 1015.2
20260502070035 59 189 8.0 11.0 0.00 0.00 0.00 77 1016.1
20260502064536 58 180 8.0 12.0 0.00 0.00 0.00 78 1016.1
20260502063026 58 190 8.0 14.0 0.00 0.00 0.00 78 1016.2
20260502061523 57 190 10.0 14.0 0.00 0.00 0.00 78 1016.2
20260502060018 56 203 10.0 15.0 0.00 0.00 0.00 80 1016.2
20260502054514 55 194 9.0 16.0 0.00 0.00 0.00 83 1016.3
20260502053009 53 192 9.0 15.0 0.00 0.00 0.00 85 1016.3
20260502051506 53 194 9.0 12.0 0.00 0.00 0.00 86 1016.5
20260502050100 52 200 7.0 11.0 0.00 0.00 0.00 88 1016.6
20260502044556 51 194 6.0 10.0 0.00 0.00 0.00 88 1016.7
20260502043100 50 195 7.0 10.0 0.00 0.00 0.00 88 1016.8
20260502041549 50 198 7.0 10.0 0.00 0.00 0.00 88 1016.8
20260502040051 50 192 6.0 10.0 0.00 0.00 0.00 88 1017.1
20260502034544 50 205 6.0 9.0 0.00 0.00 0.00 87 1017.3
20260502033043 50 184 5.0 10.0 0.00 0.00 0.00 86 1017.5
20260502031538 50 182 5.0 9.0 0.00 0.00 0.00 86 1017.9
20260502030043 50 192 6.0 10.0 0.00 0.00 0.00 85 1018.2
20260502024534 51 196 6.0 9.0 0.00 0.00 0.00 84 1018.4
20260502023032 51 193 5.0 9.0 0.00 0.00 0.00 84 1018.5
20260502021531 51 197 6.0 9.0 0.00 0.00 0.00 84 1018.7
20260502020027 51 194 5.0 8.0 0.00 0.00 0.00 84 1018.9
20260502014524 51 184 4.0 8.0 0.00 0.00 0.00 83 1019.0
20260502013022 51 198 5.0 9.0 0.00 0.00 0.00 83 1019.3
20260502011520 51 186 5.0 9.0 0.00 0.00 0.00 83 1019.5
20260502010021 51 196 6.0 9.0 0.00 0.00 0.00 83 1019.7
20260502004516 52 202 6.0 10.0 0.00 0.00 0.00 83 1019.9
20260502003014 52 194 6.0 8.0 0.00 0.00 0.00 82 1020.0
20260502001513 52 194 7.0 10.0 0.00 0.00 0.00 82 1020.4
20260502000010 52 192 7.0 9.0 0.00 0.00 0.00 82 1020.5
20260501234508 53 193 6.0 9.0 0.00 0.00 0.00 81 1020.6
20260501233006 53 184 5.0 7.0 0.00 0.00 0.00 81 1020.8
20260501231503 53 192 5.0 7.0 0.00 0.00 0.00 81 1021.1
20260501230002 53 188 4.0 8.0 0.00 0.00 0.00 81 1021.1
20260501224600 53 192 5.0 7.0 0.00 0.00 0.00 81 1021.4
20260501223108 53 197 5.0 7.0 0.00 0.00 0.00 82 1021.7
20260501221554 53 190 4.0 7.0 0.00 0.00 0.00 83 1021.8
20260501220050 52 198 6.0 8.0 0.00 0.00 0.00 84 1021.9
20260501214549 52 200 6.0 9.0 0.00 0.00 0.00 83 1022.0
20260501213055 53 193 6.0 7.0 0.00 0.00 0.00 79 1022.1
20260501211555 54 194 5.0 8.0 0.00 0.00 0.00 76 1022.0
20260501210045 55 197 5.0 8.0 0.00 0.00 0.00 74 1022.1
20260501204556 55 192 4.0 8.0 0.00 0.00 0.00 72 1022.1
20260501203055 56 196 6.0 9.0 0.00 0.00 0.00 71 1022.3
20260501201543 56 188 5.0 9.0 0.00 0.00 0.00 70 1022.4
20260501200041 56 194 6.0 9.0 0.00 0.00 0.00 71 1022.4
20260501194540 56 198 7.0 10.0 0.00 0.00 0.00 71 1022.5
20260501193045 56 205 8.0 10.0 0.00 0.00 0.00 71 1022.7
20260501191537 57 194 8.0 10.0 0.00 0.00 0.00 70 1022.8
20260501190036 58 198 7.0 12.0 0.00 0.00 0.00 68 1022.8
20260501184538 59 195 8.0 13.0 0.00 0.00 0.00 66 1022.7
20260501183035 59 188 7.0 13.0 0.00 0.00 0.00 65 1022.9
20260501181534 60 180 8.0 12.0 0.00 0.00 0.00 64 1022.8
20260501180035 61 193 8.0 13.0 0.00 0.00 0.00 61 1022.8
20260501174531 62 201 8.0 12.0 0.00 0.00 0.00 59 1022.8
20260501173034 63 182 10.0 16.0 0.00 0.00 0.00 56 1022.9
20260501171524 65 170 9.0 17.0 0.00 0.00 0.00 55 1023.2
20260501170025 65 195 11.0 19.0 0.00 0.00 0.00 52 1023.4
20260501164522 67 200 10.0 18.0 0.00 0.00 0.00 50 1023.4
20260501163020 67 171 10.0 17.0 0.00 0.00 0.00 53 1023.5
20260501161518 67 170 9.0 13.0 0.00 0.00 0.00 54 1023.7
20260501160026 68 204 8.0 18.0 0.00 0.00 0.00 54 1023.7
20260501154516 68 171 8.0 15.0 0.00 0.00 0.00 52 1024.0
20260501153013 69 181 11.0 15.0 0.00 0.00 0.00 53 1024.2
20260501151515 69 151 8.0 14.0 0.00 0.00 0.00 54 1024.4
20260501150011 69 144 8.0 13.0 0.00 0.00 0.00 53 1024.6